Flag for France Weather past 2 weeks in Tours, France

Now
54 °F

Clear.


Feels Like: 53 °F
Forecast: 56 / 73 °F
Wind: 3 mph from West

Location: Tours Airport

Current Time: Aug 30, 2014 at 7:04:21 AM

Latest Report: Aug 30, 2014 at 6:30 AM


Visibility: 10 mi

Pressure: 30.12 "Hg

Humidity: 94%

Dew point: 52 °F

Location of ToursLocation

Historic Weather in Tours — Graph

°F

Tours temperature yesterday

Maximum temperature yesterday: 73 °F (at 2:30 PM)
Minimum temperature yesterday: 57 °F (at 5:00 AM)
Average temperature yesterday: 65 °F

Past Weeks' High & Low Weather Summary

 TemperatureHumidityPressure
High77 °F (Aug 28, 4:30 PM)100% (Aug 15, 6:30 AM)30.24 "Hg (Aug 15, 6:30 AM)
Low46 °F (Aug 21, 5:00 AM)38% (Aug 19, 5:00 PM)29.68 "Hg (Aug 26, 7:30 AM)
Average62 °F71%30.02 "Hg
* Reported Aug 15 6:30 AM — Aug 30 6:00 AM, Tours, Weather by CustomWeather, © 2014

Note: Actual official high and low records may vary slightly from our data, if they occured in-between our weather recording intervals... More about our weather records

Advertising

Tours weather history for previous 24 hours

 ConditionsComfort  
Time TempWeatherWind HumidityBarometerVisibility
6:00 AM
Aug 30
54 °FClear.2 mph94%30.12 "Hg10 mi
5:30 AM54 °FClear.2 mph94%30.12 "Hg10 mi
5:00 AM54 °FClear.3 mph100%30.12 "Hg10 mi
4:30 AM55 °FClear.3 mph94%30.12 "HgN/A
4:00 AM55 °FClear.5 mph88%30.12 "HgN/A
3:30 AM55 °FClear.3 mph94%30.12 "HgN/A
3:00 AM55 °FClear.3 mph94%30.12 "HgN/A
2:30 AM57 °FClear.3 mph88%30.12 "HgN/A
2:00 AM57 °FClear.5 mph88%30.15 "Hg10 mi
1:00 AM59 °FClear.5 mph82%30.12 "Hg10 mi
12:30 AM59 °FClear.6 mph88%30.12 "Hg10 mi
12:00 AM59 °FClear.6 mph82%30.12 "Hg10 mi
11:30 PM
Aug 29
61 °FClear.6 mph83%30.12 "Hg10 mi
11:00 PM61 °FClear.3 mph83%30.12 "Hg10 mi
9:00 PM66 °FSunny.3 mph64%30.09 "Hg10 mi
8:30 PM68 °FSunny.5 mph60%30.09 "Hg10 mi
8:00 PM68 °FSunny.5 mph60%30.09 "Hg10 mi
7:30 PM70 °FClear.6 mph53%30.09 "HgN/A
7:00 PM70 °FClear.8 mph50%30.09 "HgN/A
6:30 PM72 °FClear.7 mph50%30.09 "HgN/A
6:00 PM72 °FClear.9 mph47%30.09 "HgN/A
5:30 PM72 °FClear.9 mph50%30.09 "HgN/A
5:00 PM73 °FClear.13 mph44%30.09 "HgN/A
4:30 PM73 °FScattered clouds.10 mph47%30.09 "HgN/A
4:00 PM72 °FClear.12 mph50%30.09 "HgN/A
3:30 PM72 °FScattered clouds.10 mph50%30.09 "HgN/A
3:00 PM72 °FPartly sunny.10 mph50%30.09 "HgN/A
2:30 PM73 °FPassing clouds.12 mph47%30.09 "HgN/A
2:00 PM72 °FPartly sunny.8 mph53%30.09 "HgN/A
1:30 PM70 °FPartly sunny.8 mph53%30.09 "HgN/A
1:00 PM72 °FScattered clouds.8 mph53%30.09 "HgN/A
12:30 PM70 °FPartly sunny.8 mph60%30.09 "HgN/A
12:00 PM68 °FScattered clouds.7 mph69%30.09 "HgN/A
11:30 AM66 °FPartly sunny.7 mph73%30.09 "HgN/A
11:00 AM64 °FMostly cloudy.7 mph88%30.09 "HgN/A
10:30 AM63 °FMostly cloudy.3 mph94%30.09 "HgN/A
10:00 AM61 °FLow clouds.6 mph100%30.09 "HgN/A
9:30 AM61 °FDrizzle. Fog.5 mph100%30.09 "Hg3 mi
9:00 AM61 °FFog.5 mph94%30.09 "Hg2 mi
8:30 AM59 °FFog.1 mph100%30.09 "Hg0 mi
8:00 AM59 °FFog.2 mph100%30.07 "Hg0 mi
7:30 AM59 °FFog.5 mph100%30.07 "Hg0 mi
7:00 AM59 °FFog.5 mph94%30.07 "Hg0 mi
Weather by CustomWeather, © 2014

See weather overviewHow to use our weather pages